Back to catalog

FENGYUN 1C DEB

AliveSSO
NORAD 30606·DEBRIS·🇨🇳 China

Launched May 10, 1999 from Taiyuan Satellite Launch Center

Loading…

Next Passes (next 24 hours)

TLE

FreshSource: Space-Track

Epoch: Sep 14, 2026, 11:36 UTC

1 30606U 99025AMM 26257.48344552  .00003221  00000-0  50775-3 0  9992
2 30606  98.0921 265.8415 0206678 356.2573 158.0072 14.59830763 32630

Track FENGYUN 1C DEB in real time with AllMySat

Download on the App Store